CAPE
33 63 6 0 38 0 14 40 10 0 23 39 16 1 0 0 0 4 0 0 0 0 0 0 9 32 73 15 44 196 3018 3029 2985 2521 2498 2727 2606 2109 2031 1983 1843 2079 1922 1797
56 19 1 32 23 18 18 31 5 8 24 105 33 0 0 0 0 0 0 0 0 0 0 0 12 120 44 18 219 287 2526 2893 3055 2936 2724 2634 2764 2455 2137 1766 1657 1702 1892 1737
28 1 51 40 59 40 19 12 9 6 33 43 52 0 0 0 0 0 0 0 0 0 0 2 10 1 384 44 191 278 308 2958 2718 2672 2860 2922 3011 2853 2609 2185 1907 1839 2031 1528
80 2 78 72 134 48 31 10 15 27 50 27 56 6 0 0 0 0 0 2 0 0 0 4 6 16 10 195 186 148 66 476 2771 2589 2551 2595 2512 2183 2144 2051 2033 1621 1621 1959
12 29 43 44 66 63 30 58 21 3 9 26 22 30 0 0 0 0 0 0 89 103 40 3 63 10 13 109 215 87 37 133 40 2188 2358 2316 2351 2286 2139 1992 1831 1626 2044 1981
15 0 12 0 0 27 28 57 25 72 20 13 0 60 0 0 0 0 5 199 28 3 0 3 6 10 1 99 99 158 160 19 25 219 2019 2241 1909 1954 1833 1732 1579 1869 1693 1548
29 0 0 44 0 25 100 33 0 61 9 0 0 56 0 5 0 8 156 36 0 1 1 0 0 0 0 0 72 188 308 89 24 233 1634 2256 2048 1702 1578 1307 1114 1378 1563 1404
70 0 3 3 0 0 32 0 0 0 0 0 8 31 0 0 3 129 9 0 0 0 0 0 0 0 0 0 0 0 0 63 49 498 1174 1996 1619 1437 1456 1321 1041 769 1350 916
73 14 10 5 28 18 0 9 9 0 0 0 44 92 5 0 6 30 6 3 0 4 2 0 0 0 0 0 0 0 0 31 13 28 353 1008 1446 1374 1417 1210 936 787 1299 1092
0 1 0 0 0 0 0 5 0 34 1 0 0 0 100 8 10 16 3 0 0 0 0 0 0 0 0 0 0 0 0 0 2 38 147 456 627 825 955 1007 888 752 697 1010
3 2 0 0 0 0 10 0 4 0 0 5 2 6 0 2 9 0 0 3 2 6 0 0 0 0 0 0 0 0 0 0 0 0 5 12 189 290 698 678 929 904 860 659
0 0 0 0 0 0 0 0 0 0 33 0 2 0 7 0 0 20 28 29 22 2 2 12 2 2 0 0 0 0 0 0 0 0 0 0 0 0 96 436 678 955 885 962
0 0 0 0 0 0 1 0 0 0 0 0 0 0 0 0 0 0 0 0 0 0 4 5 10 0 1 0 0 0 0 0 0 0 0 0 0 0 0 0 22 85 252 878
12 0 0 0 0 0 0 0 0 0 0 0 0 0 0 0 0 0 0 0 2 0 0 0 0 0 0 0 0 0 1 0 0 0 0 0 0 0 0 0 0 0 3 245
30 0 8 0 0 0 0 0 0 0 0 0 0 0 0 4 0 0 2 9 1 0 0 0 0 0 0 0 0 0 0 0 0 0 0 0 0 0 4 1 0 0 0 0
5 0 0 0 0 0 0 0 0 0 0 0 0 0 65 20 34 34 5 1 0 0 0 0 0 0 0 0 0 0 0 0 0 0 0 0 0 0 0 4 0 0 0 0
0 0 0 0 0 0 0 0 0 0 8 4 0 9 2 1 15 38 33 15 0 0 0 0 0 0 0 0 0 0 0 0 0 0 0 0 0 0 0 0 0 0 0 0
88 11 0 0 0 0 0 0 0 8 1 0 0 0 11 36 27 23 28 11 3 0 0 0 0 0 0 0 0 0 0 0 0 0 0 0 0 0 0 0 0 0 0 0
6 69 10 0 0 0 1 7 1 0 0 1 1 1 10 1 4 16 10 3 0 0 0 0 0 0 0 0 0 0 0 0 0 0 0 0 0 0 0 0 6 0 0 0
23 87 110 59 0 0 25 4 6 0 0 0 0 0 0 0 10 0 0 0 0 0 0 0 0 0 0 0 0 0 0 0 0 0 0 0 0 0 0 0 0 0 0 0
43 107 93 93 0 9 27 1 0 0 7 3 3 0 0 0 0 0 0 0 0 0 0 0 0 0 0 0 0 0 0 0 0 0 0 0 0 0 0 0 0 0 0 0
38 41 64 71 35 0 1 2 20 25 34 19 8 0 0 0 0 0 0 0 0 0 0 0 0 0 0 0 0 0 0 0 0 0 0 0 0 0 0 0 0 0 1 0
22 17 34 0 5 1 3 74 32 7 1 2 1 0 0 4 0 0 0 0 0 0 0 1 0 0 0 0 0 0 1 2 0 0 0 0 0 0 0 0 0 0 0 2
1 17 69 24 19 17 46 5 5 21 4 2 1 1 1 0 0 2 9 4 1 3 5 12 16 0 0 0 0 0 0 6 22 5 0 0 0 0 0 0 0 0 0 4
17 33 21 29 20 1 30 45 33 3 0 0 0 0 0 0 0 1 2 0 0 13 29 34 20 5 1 2 0 0 0 0 0 0 6 13 0 0 0 0 0 2 0 2
6 0 52 72 37 15 10 7 0 1 0 0 0 0 0 0 0 4 10 9 0 0 26 22 25 5 0 0 0 0 0 0 0 0 0 2 3 0 0 0 0 0 6 2
CIN
-1 0 0 0 0 0 0 0 0 0 -1 -4 -4 0 0 0 0 -1 0 0 0 0 0 -112 -187 -175 -201 -221 -159 -80 -54 -57 -78 -79 -24 -8 -11 -26 -35 -47 -33 -12 -3 -3
0 -1 0 -1 0 0 0 0 0 0 -1 0 0 0 0 0 0 0 0 0 0 0 0 -56 -204 -129 -255 -263 -172 -100 -47 -58 -44 -68 -70 -24 -11 -13 -39 -69 -84 -45 -6 -4
-4 -2 -1 -1 -10 -20 0 -1 0 0 -1 0 0 0 0 0 0 0 0 0 0 0 -30 -172 -97 -148 -93 -282 -228 -155 -77 -50 -62 -61 -39 -15 -3 -2 -2 -8 -45 -33 -6 -34
0 -74 -2 0 0 -16 0 0 0 0 0 0 -1 0 0 0 0 0 0 -9 0 0 0 -112 -136 -228 -313 -239 -279 -249 -230 -52 -39 -61 -33 -32 -21 -9 -5 -38 -80 -112 -79 -28
-1 -4 0 0 -2 -1 0 -11 -4 -11 -1 -11 0 0 0 0 0 0 0 0 -115 -189 -164 -85 -115 -142 -240 -242 -280 -462 -438 -281 -144 -7 -29 -20 -14 -20 -5 -2 -23 -75 -41 -38
0 0 -4 0 0 -28 -45 -1 -7 -4 -2 -2 0 0 0 0 0 0 -30 -22 -200 -202 -195 -288 -351 -311 -46 -319 -329 -308 -287 -374 -315 -156 -26 -34 -29 -3 -3 -9 -2 -2 -32 -42
0 0 0 0 0 -2 -1 -6 0 -4 -3 0 0 -1 0 -11 0 -5 -14 -65 0 -22 -17 0 0 0 0 0 -262 -256 -135 -237 -299 -131 -45 -46 -70 -25 -12 -13 -46 -1 -3 -23
0 0 0 0 0 0 0 0 0 -3 0 0 0 -1 0 0 -4 -32 -54 0 0 0 -1 0 0 0 0 0 0 0 0 -171 -161 -41 -58 -14 -52 -21 -14 -5 -5 -65 -13 -52
-6 -2 -1 -1 -3 -1 0 -10 0 0 0 0 -6 -13 -3 0 -5 -7 -7 -23 0 -4 -3 0 0 0 0 0 0 0 0 -50 -63 -159 -25 -30 -22 -17 -2 -1 0 -42 -4 -23
0 -1 0 -1 -1 0 0 -3 0 -1 -1 0 0 0 -12 -11 -29 -11 -6 0 0 0 0 0 0 0 0 0 0 0 0 0 0 -122 -42 0 0 0 0 -4 -3 -11 -36 -10
-2 -2 0 0 0 -2 -10 0 -4 -3 0 -10 0 -4 0 -1 0 0 0 -7 -23 -48 0 0 0 0 0 0 0 0 0 0 0 0 -8 -15 -6 -4 0 0 0 0 -1 -9
-1 -2 0 0 0 0 0 0 0 0 -1 0 -21 0 -2 0 -1 -21 -4 -31 -12 -47 -5 -6 -15 -58 0 0 0 0 0 -9 0 0 0 0 0 0 -18 0 0 0 0 0
0 0 0 0 0 0 -3 0 0 0 0 0 0 0 0 0 0 0 0 0 0 0 -22 -11 -5 0 -25 0 0 0 0 0 0 0 0 0 0 0 0 0 -47 -21 -4 -1
-1 0 0 0 0 0 0 0 0 0 0 0 0 0 0 0 0 0 0 0 -4 0 0 0 0 0 0 0 0 0 0 0 0 0 0 0 0 0 0 0 0 0 -16 0
0 0 -6 0 0 0 0 0 0 0 0 0 0 0 0 -1 0 0 -4 -3 -5 -1 0 0 0 0 0 0 0 0 0 0 0 0 0 0 0 0 -3 -4 0 0 0 0
-1 0 0 0 0 0 0 0 0 0 0 0 0 0 -13 -68 -55 -27 -32 0 0 0 0 0 0 0 0 0 0 0 0 0 0 0 0 0 0 0 0 -4 0 0 0 0
0 0 0 0 0 0 0 0 0 0 -4 -1 0 -7 -3 -9 -13 -1 -1 -1 0 0 0 0 0 0 0 0 0 0 0 0 0 0 0 0 0 0 0 0 0 0 0 0
-4 -2 0 0 0 0 0 -7 0 -3 -4 0 0 0 -4 0 -11 -7 -23 -7 -3 0 0 0 0 0 0 0 0 0 0 0 0 0 0 0 0 0 0 0 0 0 0 0
0 -1 0 0 0 0 0 -4 -3 0 0 -1 -2 -5 -20 -19 -6 0 -7 -3 0 0 0 0 0 0 0 0 0 0 0 0 0 0 0 0 0 0 0 0 -2 0 0 0
-7 0 -2 0 0 0 -12 -7 -4 0 0 0 0 0 0 0 -10 -2 0 0 0 0 0 0 0 0 0 0 0 0 0 0 0 0 0 0 0 0 0 0 0 0 0 0
-6 -4 0 0 0 0 -9 -4 -5 0 -2 -11 -6 -3 -1 0 0 0 0 0 0 0 0 0 0 0 0 0 0 0 0 0 0 0 0 0 0 0 0 0 0 0 0 0
-7 -3 -1 0 0 0 -18 -1 -3 -1 0 -1 -2 -2 0 0 0 0 0 0 0 0 0 0 0 0 0 0 0 0 0 0 0 0 0 0 0 0 0 0 0 0 0 0
-2 -1 -3 0 0 0 -6 0 0 -6 -2 0 0 -1 -1 0 0 0 0 0 0 0 0 0 0 0 0 0 0 0 -7 -5 0 0 0 0 0 0 0 0 0 0 0 0
-12 -20 -2 -5 -5 -7 -7 -2 -5 -6 -22 0 0 0 0 -1 0 0 0 -1 0 0 0 0 -2 -1 0 0 0 0 0 -2 -1 -1 0 -4 -1 0 0 0 0 0 0 0
-20 -5 -3 -2 -7 -20 -14 -4 -4 -8 0 0 0 0 0 0 0 0 -1 0 0 0 0 0 0 0 0 0 0 0 0 0 0 0 -3 -10 -1 0 0 0 0 -3 0 0
-2 0 -2 -1 -3 -5 -14 -31 0 0 0 0 0 0 0 0 0 0 0 0 0 0 0 0 0 0 0 0 0 0 0 0 0 0 0 -5 -7 0 0 0 0 0 -1 0
Wind_Speed
nan nan nan nan nan nan nan nan nan nan nan nan nan nan nan nan nan nan nan nan nan nan nan nan nan nan nan nan nan 26 34 27 34 35 32 32 33 31 27 26 22 19 21 23
nan nan nan nan nan nan nan nan nan nan nan 28 nan nan nan nan nan nan nan nan nan nan nan nan nan 34 nan nan 20 22 37 29 27 31 31 32 34 34 32 30 25 25 26 26
nan nan nan nan nan nan nan nan nan nan nan nan nan nan nan nan nan nan nan nan nan nan nan nan nan nan 39 nan 27 24 25 34 29 24 29 32 37 38 38 36 34 31 29 30
nan nan nan nan 46 nan nan nan nan nan nan nan nan nan nan nan nan nan nan nan nan nan nan nan nan nan nan 40 35 34 nan 39 28 29 31 33 33 35 36 36 34 34 34 32
nan nan nan nan nan nan nan nan nan nan nan nan nan nan nan nan nan nan nan nan nan 38 nan nan nan nan nan 49 44 nan nan 37 nan 29 33 33 35 33 40 42 39 37 36 35
nan nan nan nan nan nan nan nan nan nan nan nan nan nan nan nan nan nan nan 55 nan nan nan nan nan nan nan nan nan 41 36 nan nan 34 31 36 34 33 39 41 41 38 41 38
nan nan nan nan nan nan 35 nan nan nan nan nan nan nan nan nan nan nan 51 nan nan nan nan nan nan nan nan nan nan 46 41 nan nan 36 38 37 37 36 40 43 41 42 42 40
nan nan nan nan nan nan nan nan nan nan nan nan nan nan nan nan nan 39 nan nan nan nan nan nan nan nan nan nan nan nan nan nan nan 39 46 41 36 39 41 43 44 41 41 40
nan nan nan nan nan nan nan nan nan nan nan nan nan nan nan nan nan nan nan nan nan nan nan nan nan nan nan nan nan nan nan nan nan nan 61 52 41 40 40 42 45 47 46 45
nan nan nan nan nan nan nan nan nan nan nan nan nan nan 46 nan nan nan nan nan nan nan nan nan nan nan nan nan nan nan nan nan nan nan 61 63 59 57 48 39 42 44 46 48
nan nan nan nan nan nan nan nan nan nan nan nan nan nan nan nan nan nan nan nan nan nan nan nan nan nan nan nan nan nan nan nan nan nan nan nan 63 65 61 58 54 45 47 49
nan nan nan nan nan nan nan nan nan nan nan nan nan nan nan nan nan nan nan nan nan nan nan nan nan nan nan nan nan nan nan nan nan nan nan nan nan nan nan 64 66 65 67 51
nan nan nan nan nan nan nan nan nan nan nan nan nan nan nan nan nan nan nan nan nan nan nan nan nan nan nan nan nan nan nan nan nan nan nan nan nan nan nan nan nan nan 66 63
nan nan nan nan nan nan nan nan nan nan nan nan nan nan nan nan nan nan nan nan nan nan nan nan nan nan nan nan nan nan nan nan nan nan nan nan nan nan nan nan nan nan nan 67
nan nan nan nan nan nan nan nan nan nan nan nan nan nan nan nan nan nan nan nan nan nan nan nan nan nan nan nan nan nan nan nan nan nan nan nan nan nan nan nan nan nan nan nan
nan nan nan nan nan nan nan nan nan nan nan nan nan nan nan nan nan nan nan nan nan nan nan nan nan nan nan nan nan nan nan nan nan nan nan nan nan nan nan nan nan nan nan nan
nan nan nan nan nan nan nan nan nan nan nan nan nan nan nan nan nan nan nan nan nan nan nan nan nan nan nan nan nan nan nan nan nan nan nan nan nan nan nan nan nan nan nan nan
nan nan nan nan nan nan nan nan nan nan nan nan nan nan nan nan nan nan nan nan nan nan nan nan nan nan nan nan nan nan nan nan nan nan nan nan nan nan nan nan nan nan nan nan
nan nan nan nan nan nan nan nan nan nan nan nan nan nan nan nan nan nan nan nan nan nan nan nan nan nan nan nan nan nan nan nan nan nan nan nan nan nan nan nan nan nan nan nan
nan nan 16 nan nan nan nan nan nan nan nan nan nan nan nan nan nan nan nan nan nan nan nan nan nan nan nan nan nan nan nan nan nan nan nan nan nan nan nan nan nan nan nan nan
nan 6 nan nan nan nan nan nan nan nan nan nan nan nan nan nan nan nan nan nan nan nan nan nan nan nan nan nan nan nan nan nan nan nan nan nan nan nan nan nan nan nan nan nan
nan nan nan nan nan nan nan nan nan nan nan nan nan nan nan nan nan nan nan nan nan nan nan nan nan nan nan nan nan nan nan nan nan nan nan nan nan nan nan nan nan nan nan nan
nan nan nan nan nan nan nan nan nan nan nan nan nan nan nan nan nan nan nan nan nan nan nan nan nan nan nan nan nan nan nan nan nan nan nan nan nan nan nan nan nan nan nan nan
nan nan nan nan nan nan nan nan nan nan nan nan nan nan nan nan nan nan nan nan nan nan nan nan nan nan nan nan nan nan nan nan nan nan nan nan nan nan nan nan nan nan nan nan
nan nan nan nan nan nan nan nan nan nan nan nan nan nan nan nan nan nan nan nan nan nan nan nan nan nan nan nan nan nan nan nan nan nan nan nan nan nan nan nan nan nan nan nan
nan nan nan nan nan nan nan nan nan nan nan nan nan nan nan nan nan nan nan nan nan nan nan nan nan nan nan nan nan nan nan nan nan nan nan nan nan nan nan nan nan nan nan nan
Wind_Direction
nan nan nan nan nan nan nan nan nan nan nan nan nan nan nan nan nan nan nan nan nan nan nan nan nan nan nan nan nan 273 281 278 268 262 262 257 264 265 260 257 272 271 273 273
nan nan nan nan nan nan nan nan nan nan nan 275 nan nan nan nan nan nan nan nan nan nan nan nan nan 277 nan nan 258 265 281 283 274 271 269 261 260 259 255 250 256 269 274 273
nan nan nan nan nan nan nan nan nan nan nan nan nan nan nan nan nan nan nan nan nan nan nan nan nan nan 267 nan 277 263 278 291 278 277 267 258 255 255 257 261 257 265 273 278
nan nan nan nan 275 nan nan nan nan nan nan nan nan nan nan nan nan nan nan nan nan nan nan nan nan nan nan 265 253 257 nan 253 288 283 271 278 269 264 262 264 262 265 276 278
nan nan nan nan nan nan nan nan nan nan nan nan nan nan nan nan nan nan nan nan nan 258 nan nan nan nan nan 262 260 nan nan 233 nan 276 278 271 269 265 260 257 262 263 262 271
nan nan nan nan nan nan nan nan nan nan nan nan nan nan nan nan nan nan nan 264 nan nan nan nan nan nan nan nan nan 252 241 nan nan 239 261 272 274 264 264 262 258 255 260 261
nan nan nan nan nan nan 262 nan nan nan nan nan nan nan nan nan nan nan 257 nan nan nan nan nan nan nan nan nan nan 246 246 nan nan 237 243 261 267 267 266 265 261 259 254 255
nan nan nan nan nan nan nan nan nan nan nan nan nan nan nan nan nan 261 nan nan nan nan nan nan nan nan nan nan nan nan nan nan nan 237 238 255 261 254 254 260 257 257 259 259
nan nan nan nan nan nan nan nan nan nan nan nan nan nan nan nan nan nan nan nan nan nan nan nan nan nan nan nan nan nan nan nan nan nan 238 239 249 256 254 257 256 258 261 261
nan nan nan nan nan nan nan nan nan nan nan nan nan nan 248 nan nan nan nan nan nan nan nan nan nan nan nan nan nan nan nan nan nan nan 235 242 246 240 237 247 254 257 259 262
nan nan nan nan nan nan nan nan nan nan nan nan nan nan nan nan nan nan nan nan nan nan nan nan nan nan nan nan nan nan nan nan nan nan nan nan 235 239 236 236 238 244 255 260
nan nan nan nan nan nan nan nan nan nan nan nan nan nan nan nan nan nan nan nan nan nan nan nan nan nan nan nan nan nan nan nan nan nan nan nan nan nan nan 236 236 237 237 245
nan nan nan nan nan nan nan nan nan nan nan nan nan nan nan nan nan nan nan nan nan nan nan nan nan nan nan nan nan nan nan nan nan nan nan nan nan nan nan nan nan nan 234 238
nan nan nan nan nan nan nan nan nan nan nan nan nan nan nan nan nan nan nan nan nan nan nan nan nan nan nan nan nan nan nan nan nan nan nan nan nan nan nan nan nan nan nan 236
nan nan nan nan nan nan nan nan nan nan nan nan nan nan nan nan nan nan nan nan nan nan nan nan nan nan nan nan nan nan nan nan nan nan nan nan nan nan nan nan nan nan nan nan
nan nan nan nan nan nan nan nan nan nan nan nan nan nan nan nan nan nan nan nan nan nan nan nan nan nan nan nan nan nan nan nan nan nan nan nan nan nan nan nan nan nan nan nan
nan nan nan nan nan nan nan nan nan nan nan nan nan nan nan nan nan nan nan nan nan nan nan nan nan nan nan nan nan nan nan nan nan nan nan nan nan nan nan nan nan nan nan nan
nan nan nan nan nan nan nan nan nan nan nan nan nan nan nan nan nan nan nan nan nan nan nan nan nan nan nan nan nan nan nan nan nan nan nan nan nan nan nan nan nan nan nan nan
nan nan nan nan nan nan nan nan nan nan nan nan nan nan nan nan nan nan nan nan nan nan nan nan nan nan nan nan nan nan nan nan nan nan nan nan nan nan nan nan nan nan nan nan
nan nan 295 nan nan nan nan nan nan nan nan nan nan nan nan nan nan nan nan nan nan nan nan nan nan nan nan nan nan nan nan nan nan nan nan nan nan nan nan nan nan nan nan nan
nan 243 nan nan nan nan nan nan nan nan nan nan nan nan nan nan nan nan nan nan nan nan nan nan nan nan nan nan nan nan nan nan nan nan nan nan nan nan nan nan nan nan nan nan
nan nan nan nan nan nan nan nan nan nan nan nan nan nan nan nan nan nan nan nan nan nan nan nan nan nan nan nan nan nan nan nan nan nan nan nan nan nan nan nan nan nan nan nan
nan nan nan nan nan nan nan nan nan nan nan nan nan nan nan nan nan nan nan nan nan nan nan nan nan nan nan nan nan nan nan nan nan nan nan nan nan nan nan nan nan nan nan nan
nan nan nan nan nan nan nan nan nan nan nan nan nan nan nan nan nan nan nan nan nan nan nan nan nan nan nan nan nan nan nan nan nan nan nan nan nan nan nan nan nan nan nan nan
nan nan nan nan nan nan nan nan nan nan nan nan nan nan nan nan nan nan nan nan nan nan nan nan nan nan nan nan nan nan nan nan nan nan nan nan nan nan nan nan nan nan nan nan
nan nan nan nan nan nan nan nan nan nan nan nan nan nan nan nan nan nan nan nan nan nan nan nan nan nan nan nan nan nan nan nan nan nan nan nan nan nan nan nan nan nan nan nan